This demonstration page uses our WeatherBlox Daily Observations layout. Learn more.

Left ArrowRight Arrow

Hourly Observations for October 30, 2021

Temp ( °F °C ) Dew Point ( °F °C ) Humidity (%) Winds ( mph kmh ) Pressure ( in mb ) Visibility ( mi km ) Precip ( " mm )
12:15 am 00:15 Cloudy 54 12 54 12 100 100 N 3 6 29.53 1000 10 16 0.00 0.00
12:35 am 00:35 Cloudy 54 12 54 12 100 100 NNE 6 9 29.52 1000 10 16 0.00 0.00
12:55 am 00:55 Cloudy with Light Rain 54 12 54 12 100 100 Calm 29.54 1000 10 16 0.00 0.00
1:15 am 01:15 Cloudy 54 12 54 12 100 100 NNE 3 6 29.53 1000 10 16 0.00 0.00
1:35 am 01:35 Cloudy 54 12 54 12 100 100 NNE 7 11 29.52 1000 10 16 0.00 0.00
1:55 am 01:55 Cloudy with Light Rain 54 12 54 12 100 100 NE 3 6 29.53 1000 10 16 0.00 0.00
2:15 am 02:15 Cloudy 54 12 54 12 100 100 Calm 29.53 1000 10 16 0.00 0.00
2:35 am 02:35 Cloudy with Light Rain 54 12 54 12 100 100 NNE 3 6 29.53 1000 10 16 0.00 0.00
2:55 am 02:55 Cloudy 54 12 54 12 100 100 NE 5 7 29.52 1000 10 16 0.00 0.00
3:15 am 03:15 Cloudy 54 12 54 12 100 100 Calm 29.53 1000 10 16 0.00 0.00
3:35 am 03:35 Cloudy 54 12 54 12 100 100 Calm 29.52 1000 7 11 0.00 0.00
3:55 am 03:55 Cloudy with Mist and Fog 54 12 54 12 100 100 Calm 29.52 1000 5 8 0.00 0.00
4:15 am 04:15 Cloudy with Light Rain 54 12 54 12 100 100 N 3 6 29.52 1000 7 11 0.00 0.00
4:35 am 04:35 Cloudy with Rain 52 11 52 11 100 100 Calm 29.52 1000 4 6 0.00 0.00
4:55 am 04:55 Cloudy with Rain 52 11 52 11 100 100 Calm 29.52 1000 4 6 0.00 0.00
5:15 am 05:15 Cloudy with Light Rain 52 11 52 11 100 100 Calm 29.52 1000 7 11 0.00 0.00
5:35 am 05:35 Cloudy 52 11 52 11 100 100 Calm 29.52 1000 7 11 0.00 0.00
5:55 am 05:55 Cloudy with Mist and Fog 54 12 54 12 100 100 Calm 29.52 1000 4 6 0.00 0.00
6:15 am 06:15 Cloudy with Mist and Fog 54 12 54 12 100 100 Calm 29.53 1000 4 6 0.00 0.00
6:35 am 06:35 Cloudy with Mist and Fog 54 12 54 12 100 100 ENE 3 6 29.53 1000 3 4 0.00 0.00
6:55 am 06:55 Cloudy with Mist and Fog 54 12 54 12 100 100 Calm 29.53 1000 2 3 0.00 0.00
7:15 am 07:15 Cloudy with Mist and Fog 54 12 54 12 100 100 Calm 29.53 1000 3 4 0.00 0.00
7:35 am 07:35 Cloudy with Mist and Fog 54 12 54 12 100 100 Calm 29.54 1000 4 6 0.00 0.00
7:55 am 07:55 Cloudy with Light Rain 54 12 54 12 100 100 SE 3 6 29.54 1000 3 4 0.00 0.00
8:15 am 08:15 Cloudy with Mist and Fog 54 12 54 12 100 100 S 7 11 29.55 1001 3 4 0.00 0.00
8:35 am 08:35 Cloudy 54 12 54 12 100 100 S 7 11 29.56 1001 10 16 0.00 0.00
8:55 am 08:55 Cloudy 55 13 55 13 100 100 S 8 13 29.57 1001 10 16 0.00 0.00
9:15 am 09:15 Cloudy 55 13 55 13 100 100 S 8 13 29.57 1001 10 16 0.00 0.00
9:35 am 09:35 Cloudy 55 13 54 12 94 94 S 10 17 29.57 1001 10 16 0.00 0.00
9:55 am 09:55 Cloudy 55 13 54 12 94 94 S 8 13 29.57 1001 10 16 0.00 0.00
10:15 am 10:15 Cloudy 55 13 54 12 94 94 S 6 9 29.58 1002 10 16 0.00 0.00
10:35 am 10:35 Cloudy 55 13 54 12 94 94 S 10 17 29.58 1002 10 16 0.00 0.00
10:55 am 10:55 Cloudy 55 13 55 13 100 100 S 7 11 29.58 1002 10 16 0.00 0.00
11:15 am 11:15 Cloudy 55 13 55 13 100 100 SSW 8 13 29.57 1001 10 16 0.00 0.00
11:35 am 11:35 Cloudy 57 14 55 13 94 94 SSW 6 9 29.58 1002 10 16 0.00 0.00
11:55 am 11:55 Cloudy 59 15 55 13 88 88 SW 6 9 29.58 1002 10 16 0.00 0.00
12:15 pm 12:15 Cloudy 59 15 54 12 82 82 S 6 9 29.57 1001 10 16 0.00 0.00
12:35 pm 12:35 Mostly Cloudy 61 16 54 12 77 77 SSW 8 13 29.56 1001 10 16 0.00 0.00
12:55 pm 12:55 Mostly Cloudy 61 16 52 11 72 72 S 12 19 29.56 1001 10 16 0.00 0.00
1:15 pm 13:15 Mostly Cloudy 63 17 54 12 73 73 SSW 7 11 29.55 1001 10 16 0.00 0.00
1:35 pm 13:35 Mostly Cloudy 61 16 54 12 77 77 SSW 3 6 29.55 1001 10 16 0.00 0.00
1:55 pm 13:55 Cloudy 61 16 54 12 77 77 SSW 8 13 29.54 1000 10 16 0.00 0.00
2:15 pm 14:15 Cloudy 61 16 52 11 72 72 SW 8 13 29.54 1000 10 16 0.00 0.00
2:35 pm 14:35 Cloudy 61 16 54 12 77 77 SSW 12 19 29.56 1001 10 16 0.00 0.00
2:55 pm 14:55 Cloudy 61 16 52 11 72 72 S 12 19 29.56 1001 10 16 0.00 0.00
3:15 pm 15:15 Cloudy 61 16 52 11 72 72 S 10 17 29.56 1001 10 16 0.00 0.00
3:35 pm 15:35 Cloudy 63 17 52 11 68 68 SSW 10 17 29.56 1001 10 16 0.00 0.00
3:55 pm 15:55 Cloudy 61 16 52 11 72 72 SSW 8 13 29.56 1001 10 16 0.00 0.00
4:15 pm 16:15 Cloudy 61 16 52 11 72 72 SSW 9 15 29.57 1001 10 16 0.00 0.00
4:35 pm 16:35 Cloudy 61 16 52 11 72 72 S 6 9 29.56 1001 10 16 0.00 0.00
4:55 pm 16:55 Cloudy 61 16 52 11 72 72 SW 6 9 29.56 1001 10 16 0.00 0.00
5:15 pm 17:15 Mostly Cloudy 61 16 52 11 72 72 SW 6 9 29.56 1001 10 16 0.00 0.00
5:35 pm 17:35 Partly Cloudy 59 15 52 11 77 77 SW 3 6 29.57 1001 10 16 0.00 0.00
5:55 pm 17:55 Sunny 57 14 52 11 82 82 Calm 29.57 1001 10 16 0.00 0.00
6:15 pm 18:15 Clear 55 13 52 11 88 88 SW 3 6 29.57 1001 10 16 0.00 0.00
6:35 pm 18:35 Clear 55 13 52 11 88 88 Calm 29.58 1002 10 16 0.00 0.00
6:55 pm 18:55 Clear 55 13 52 11 88 88 Calm 29.58 1002 10 16 0.00 0.00
7:15 pm 19:15 Clear 55 13 52 11 88 88 Calm 29.59 1002 10 16 0.00 0.00
7:35 pm 19:35 Mostly Cloudy 52 11 52 11 100 100 Calm 29.59 1002 10 16 0.00 0.00
7:55 pm 19:55 Cloudy 52 11 52 11 100 100 Calm 29.59 1002 10 16 0.00 0.00
8:15 pm 20:15 Cloudy 54 12 52 11 94 94 Calm 29.59 1002 10 16 0.00 0.00
8:35 pm 20:35 Cloudy 54 12 52 11 94 94 Calm 29.60 1002 10 16 0.00 0.00
8:55 pm 20:55 Cloudy 54 12 52 11 94 94 Calm 29.60 1002 10 16 0.00 0.00
9:15 pm 21:15 Cloudy 54 12 52 11 94 94 Calm 29.60 1002 10 16 0.00 0.00
9:35 pm 21:35 Cloudy with Light Rain 54 12 52 11 94 94 WSW 3 6 29.60 1002 10 16 0.00 0.00
9:55 pm 21:55 Cloudy with Rain 54 12 54 12 100 100 Calm 29.61 1003 10 16 0.00 0.00
10:15 pm 22:15 Cloudy with Light Rain 54 12 54 12 100 100 W 3 6 29.61 1003 10 16 0.00 0.00
10:35 pm 22:35 Cloudy with Rain 54 12 54 12 100 100 Calm 29.61 1003 10 16 0.00 0.00
10:55 pm 22:55 Cloudy with Drizzle 54 12 54 12 100 100 Calm 29.60 1002 10 16 0.00 0.00
11:15 pm 23:15 Cloudy 52 11 52 11 100 100 Calm 29.60 1003 10 16 0.00 0.00
11:35 pm 23:35 Cloudy 52 11 52 11 100 100 Calm 29.60 1003 10 16 0.00 0.00
11:55 pm 23:55 Cloudy 52 11 52 11 100 100 Calm 29.60 1003 10 16 0.00 0.00

Powered by AerisWeather